Latest Weather Observations for Falls Creek

IDV60801

Issued at 10:35 pm EDT Thursday 27 November 2014 (issued every 30 minutes, with the page automatically refreshed every 10 minutes)

About weather observations | Map of weather stations | Latest weather observations for VIC | Other Formats
Station Details ID: 083084 Name: FALLS CREEK Lat: -36.87 Lon: 147.28 Height: 1765.0 m
Data from the previous 72 hours. | See also: Recent months at Falls Creek
Date/Time
EDT
Temp
°C
App
Temp
°C
Dew
Point
Rel
Hum
%
Delta-T
°C
Wind Press
QNH
hPa
Press
MSL
hPa
Rain
since 9 am
mm
Dir
 
Spd
km/h
Gust
km/h
Spd
kts
Gust
kts
27/10:30pm 4.2 0.7 3.6 96 0.3 SSE 11 13 6 7 1025.6 1021.3 0.0
27/10:00pm 4.5 0.6 3.6 94 0.4 SSE 13 17 7 9 1025.7 1021.4 0.0
27/09:30pm 5.0 0.8 3.7 91 0.6 SSE 15 19 8 10 1025.7 1021.4 0.0
27/09:00pm 5.6 1.0 3.8 88 0.8 SSE 17 22 9 12 1025.5 1021.2 0.0
27/08:30pm 6.3 1.3 3.8 84 1.2 SSE 19 22 10 12 1025.5 1021.2 0.0
27/08:00pm 7.6 3.0 3.8 77 1.8 SSE 17 22 9 12 1025.5 1021.2 0.0
27/07:30pm 8.9 4.0 4.1 72 2.3 SSE 19 22 10 12 1025.3 1021.0 0.0
27/07:00pm 9.9 5.0 4.3 68 2.8 SSE 19 28 10 15 1025.1 1020.8 0.0
27/06:30pm 11.0 6.2 4.7 65 3.2 SE 19 30 10 16 1025.0 1020.7 0.0
27/06:00pm 11.7 7.2 4.4 61 3.6 SSE 17 26 9 14 1024.9 1020.5 0.0
27/05:30pm 12.6 8.2 4.6 58 4.0 SE 17 26 9 14 1024.7 1020.4 0.0
27/05:00pm 13.3 8.5 4.7 56 4.4 SE 19 26 10 14 1024.9 1020.5 0.0
27/04:30pm 13.9 10.4 5.5 57 4.4 SSE 13 20 7 11 1024.9 1020.5 0.0
27/04:00pm 12.1 8.0 4.6 60 3.8 SE 15 22 8 12 1025.0 1020.7 0.0
27/03:30pm 13.3 9.2 4.5 55 4.5 ESE 15 22 8 12 1025.0 1020.7 0.0
27/03:00pm 14.6 10.2 4.9 52 5.0 SE 17 26 9 14 1025.0 1020.7 0.0
27/02:30pm 14.8 10.9 3.3 46 5.8 ESE 13 20 7 11 1025.1 1020.8 0.0
27/02:00pm 14.4 10.5 3.5 48 5.4 SE 13 24 7 13 1025.2 1020.9 0.0
27/01:30pm 14.4 11.0 4.1 50 5.2 ESE 11 24 6 13 1025.3 1021.0 0.0
27/01:00pm 12.3 9.2 3.8 56 4.2 SE 9 17 5 9 1025.3 1021.0 0.0
27/12:30pm 12.2 9.9 4.7 60 3.8 N 6 13 3 7 1025.5 1021.2 0.0
27/12:00pm 11.6 8.5 3.6 58 3.9 N 9 17 5 9 1025.5 1021.2 0.0
27/11:30am 12.1 8.5 4.8 61 3.7 N 13 22 7 12 1025.2 1020.9 0.0
27/11:00am 12.1 8.4 4.6 60 3.8 N 13 24 7 13 1025.1 1020.8 0.0
27/10:30am 11.9 9.3 4.2 59 3.8 N 7 15 4 8 1025.2 1020.9 0.0
27/10:00am 11.4 8.0 1.9 52 4.5 NNE 9 15 5 8 1025.1 1020.8 0.0
27/09:30am 10.9 7.0 1.2 51 4.5 N 11 17 6 9 1025.0 1020.7 0.0
27/09:00am 10.1 6.2 1.2 54 4.1 NNE 11 17 6 9 1024.9 1020.5 0.0
27/08:30am 9.8 6.1 -4.2 37 5.7 WSW 6 9 3 5 1024.6 1020.3 0.0
27/08:00am 8.7 5.1 -3.8 41 5.1 W 6 7 3 4 1024.4 1020.0 0.0
27/07:30am 7.9 4.9 1.1 62 3.1 SW 6 7 3 4 1024.0 1019.7 0.0
27/07:00am 6.7 3.1 0.8 66 2.6 W 9 11 5 6 1023.7 1019.3 0.0
27/06:30am 6.1 2.5 0.9 69 2.3 W 9 11 5 6 1023.3 1018.9 0.0
27/06:00am 6.5 3.3 0.8 67 2.5 W 7 9 4 5 1023.1 1018.7 0.0
27/05:30am 6.4 3.2 0.5 66 2.6 W 7 9 4 5 1022.8 1018.4 0.0
27/05:00am 6.5 2.5 -6.1 40 4.7 SW 7 7 4 4 1022.5 1018.1 0.0
27/04:30am 6.2 1.6 -16.3 18 6.9 SSW 6 7 3 4 1022.3 1017.8 0.0
27/04:00am 5.3 0.0 -19.2 15 6.9 SSE 9 9 5 5 1022.1 1017.7 0.0
27/03:30am 4.5 -0.4 -12.0 29 5.5 SSE 9 13 5 7 1022.1 1017.7 0.0
27/03:00am 3.1 -1.0 -0.5 77 1.5 S 11 15 6 8 1022.3 1017.8 0.0
27/02:30am 1.8 -2.4 1.8 100 0.0 S 13 15 7 8 1022.4 1018.0 0.0
27/02:00am 2.6 -1.8 2.6 100 0.0 SSE 15 17 8 9 1022.6 1018.2 0.0
27/01:30am 3.0 -1.0 3.0 100 0.0 SSE 13 15 7 8 1022.8 1018.4 0.0
27/01:00am 3.1 -0.9 3.1 100 0.0 S 13 17 7 9 1023.2 1018.8 0.0
27/12:30am 3.5 -0.4 3.5 100 0.0 S 13 17 7 9 1023.3 1018.9 0.0
27/12:00am 4.1 0.0 4.1 100 0.0 S 15 19 8 10 1023.6 1019.2 0.0
 
Date/Time
EDT
Temp
°C
App
Temp
°C
Dew
Point
Rel
Hum
%
Delta-T
°C
Wind Press
QNH
hPa
Press
MSL
hPa
Rain
since 9 am
mm
Dir
 
Spd
km/h
Gust
km/h
Spd
kts
Gust
kts
26/11:30pm 4.7 -0.3 4.7 100 0.0 S 20 26 11 14 1023.6 1019.2 0.0
26/11:00pm 5.1 0.4 5.1 100 0.0 SSE 19 24 10 13 1023.6 1019.2 0.0
26/10:30pm 5.3 1.0 5.3 100 0.0 SSE 17 22 9 12 1023.6 1019.2 0.0
26/10:00pm 5.6 1.4 5.6 100 0.0 SSE 17 22 9 12 1023.4 1019.1 0.0
26/09:30pm 5.8 2.0 5.8 100 0.0 S 15 19 8 10 1023.3 1018.9 0.0
26/09:00pm 6.1 2.0 6.1 100 0.0 S 17 20 9 11 1023.0 1018.6 0.0
26/08:30pm 6.4 2.3 6.4 100 0.0 SSE 17 22 9 12 1023.0 1018.6 0.0
26/08:00pm 6.8 3.6 6.8 100 0.0 SSE 13 17 7 9 1022.8 1018.4 0.0
26/07:30pm 7.2 4.1 7.1 99 0.1 SE 13 19 7 10 1022.7 1018.3 0.0
26/07:00pm 8.0 4.9 7.4 96 0.3 SSE 13 19 7 10 1022.4 1018.0 0.0
26/06:30pm 8.9 6.2 7.5 91 0.7 SE 11 15 6 8 1022.0 1017.6 0.0
26/06:00pm 9.1 6.8 7.4 89 0.9 SSE 9 17 5 9 1021.9 1017.5 0.0
26/05:30pm 9.2 5.9 6.6 84 1.3 SE 13 20 7 11 1021.7 1017.2 0.0
26/05:00pm 10.3 7.0 6.3 76 2.1 ESE 13 20 7 11 1021.8 1017.3 0.0
26/04:30pm 12.4 9.8 6.2 66 3.2 W 9 15 5 8 1021.8 1017.3 0.0
26/04:00pm 12.5 9.3 5.2 61 3.7 W 11 17 6 9 1021.8 1017.3 0.0
26/03:30pm 12.7 9.5 4.9 59 4.0 W 11 19 6 10 1021.8 1017.3 0.0
26/03:00pm 12.7 9.4 6.3 65 3.3 NNW 13 20 7 11 1021.8 1017.3 0.0
26/02:30pm 11.2 7.2 5.1 66 3.1 NNW 15 28 8 15 1021.8 1017.3 0.0
26/02:00pm 11.6 8.5 5.5 66 3.1 WNW 11 20 6 11 1021.9 1017.5 0.0
26/01:30pm 10.7 7.2 5.5 70 2.6 NNW 13 22 7 12 1021.8 1017.3 0.0
26/01:00pm 11.5 8.3 6.8 73 2.5 NNW 13 22 7 12 1022.1 1017.7 0.0
26/12:30pm 9.4 5.3 4.2 70 2.6 NW 15 24 8 13 1022.0 1017.6 0.0
26/12:00pm 8.9 4.7 3.9 71 2.4 NW 15 22 8 12 1022.0 1017.6 0.0
26/11:30am 9.5 5.4 4.3 70 2.6 NW 15 22 8 12 1022.0 1017.6 0.0
26/11:00am 9.0 5.2 4.0 71 2.4 NW 13 20 7 11 1021.7 1017.2 0.0
26/10:30am 8.6 4.7 3.6 71 2.4 NW 13 20 7 11 1021.4 1017.0 0.0
26/10:00am 7.1 2.2 1.8 69 2.4 WNW 17 22 9 12 1021.5 1017.1 0.0
26/09:30am 6.6 1.2 1.5 70 2.3 WNW 19 26 10 14 1021.4 1017.0 0.0
26/09:00am 6.3 1.2 1.0 69 2.4 WNW 17 22 9 12 1021.3 1016.8 0.0
26/08:30am 6.8 1.7 0.9 66 2.6 NW 17 26 9 14 1021.2 1016.7 0.0
26/08:00am 5.7 1.4 0.9 71 2.1 NW 13 24 7 13 1021.2 1016.7 0.0
26/07:30am 4.9 0.6 1.0 76 1.7 NW 13 33 7 18 1020.9 1016.5 0.0
26/07:00am 4.0 -1.7 0.7 79 1.4 WNW 20 33 11 18 1020.7 1016.2 0.0
26/06:30am 3.8 -1.9 0.7 80 1.3 WNW 20 32 11 17 1020.5 1016.0 0.0
26/06:00am 3.8 -2.3 0.5 79 1.4 WNW 22 30 12 16 1020.5 1016.0 0.0
26/05:30am 3.7 -2.0 0.4 79 1.4 WNW 20 32 11 17 1020.1 1015.6 0.0
26/05:00am 3.8 -3.0 0.5 79 1.4 W 26 37 14 20 1019.9 1015.4 0.0
26/04:30am 3.8 -2.3 0.3 78 1.5 WNW 22 35 12 19 1019.8 1015.2 0.0
26/04:00am 3.6 -2.9 0.3 79 1.4 WNW 24 32 13 17 1019.9 1015.4 0.0
26/03:30am 3.5 -2.3 0.2 79 1.4 WNW 20 30 11 16 1019.9 1015.4 0.0
26/03:00am 3.4 -2.3 0.5 81 1.2 NW 20 28 11 15 1020.0 1015.5 0.0
26/02:30am 3.3 -1.9 0.4 81 1.2 NW 17 24 9 13 1020.2 1015.7 0.0
26/02:00am 3.4 -1.7 0.6 82 1.2 WNW 17 24 9 13 1020.7 1016.2 0.0
26/01:30am 3.6 -2.5 0.3 79 1.4 WNW 22 30 12 16 1020.8 1016.3 0.0
26/01:00am 3.5 -2.6 0.6 81 1.2 WNW 22 30 12 16 1021.1 1016.6 0.0
26/12:30am 3.5 -3.0 0.6 81 1.2 W 24 30 13 16 1021.2 1016.7 0.0
26/12:00am 3.4 -2.3 0.5 81 1.2 WNW 20 26 11 14 1021.7 1017.2 0.0
 
Date/Time
EDT
Temp
°C
App
Temp
°C
Dew
Point
Rel
Hum
%
Delta-T
°C
Wind Press
QNH
hPa
Press
MSL
hPa
Rain
since 9 am
mm
Dir
 
Spd
km/h
Gust
km/h
Spd
kts
Gust
kts
25/11:30pm 3.0 -1.1 0.1 81 1.2 WNW 11 17 6 9 1021.9 1017.5 0.0
25/11:00pm 3.3 -0.8 -0.2 78 1.5 WNW 11 15 6 8 1022.1 1017.7 0.0
25/10:30pm 4.1 0.7 -0.3 73 1.9 W 7 13 4 7 1022.4 1018.0 0.0
25/10:00pm 3.8 0.1 0.1 77 1.6 W 9 13 5 7 1022.3 1017.8 0.0
25/09:30pm 4.0 0.4 0.9 80 1.3 WSW 9 15 5 8 1022.1 1017.7 0.0
25/09:00pm 4.1 0.5 0.8 79 1.4 WSW 9 13 5 7 1021.9 1017.5 0.0
25/08:30pm 4.2 0.7 1.2 81 1.3 NW 9 13 5 7 1021.8 1017.3 0.0
25/08:00pm 4.7 0.5 1.6 80 1.4 NW 13 19 7 10 1021.5 1017.1 0.0
25/07:30pm 5.8 2.0 1.9 76 1.8 NW 11 17 6 9 1021.3 1016.8 0.0
25/07:00pm 6.7 2.6 2.0 72 2.1 NW 13 20 7 11 1020.9 1016.5 0.0
25/06:30pm 7.7 3.2 2.2 68 2.5 WNW 15 20 8 11 1020.5 1016.0 0.0
25/06:00pm 7.2 2.3 2.3 71 2.3 NNW 17 26 9 14 1020.2 1015.7 0.0
25/05:30pm 7.1 2.2 1.8 69 2.4 NNW 17 24 9 13 1020.0 1015.5 0.0
25/05:00pm 8.8 4.0 2.4 64 3.0 NW 17 30 9 16 1020.1 1015.6 0.0
25/04:30pm 9.4 4.6 2.7 63 3.2 NNW 17 30 9 16 1019.9 1015.4 0.0
25/04:00pm 9.2 4.3 1.9 60 3.4 NW 17 26 9 14 1019.8 1015.2 0.0
25/03:30pm 9.9 5.2 3.4 64 3.1 NW 17 28 9 15 1019.5 1015.0 0.0
25/03:00pm 8.5 2.8 2.9 68 2.6 N 22 32 12 17 1019.4 1014.9 0.0
25/02:30pm 8.3 3.2 2.8 68 2.6 N 19 28 10 15 1019.3 1014.7 0.0
25/02:00pm 9.7 6.7 4.1 68 2.7 WNW 9 24 5 13 1019.3 1014.7 0.0
25/01:30pm 8.4 4.2 1.8 63 3.0 N 13 20 7 11 1019.0 1014.5 0.0
25/01:00pm 7.7 4.9 3.0 72 2.2 W 7 19 4 10 1019.0 1014.5 0.0
25/12:30pm 7.4 4.4 2.1 69 2.4 WSW 7 17 4 9 1018.9 1014.4 0.0
25/12:00pm 6.1 1.6 -0.4 63 2.8 NW 13 19 7 10 1018.9 1014.4 0.0
25/11:30am 6.4 2.3 2.1 74 2.0 NNW 13 19 7 10 1018.7 1014.1 0.0
25/11:00am 4.2 0.5 2.4 88 0.8 N 11 19 6 10 1018.4 1013.9 0.0
25/10:30am 5.1 0.5 1.6 78 1.6 WNW 15 26 8 14 1018.1 1013.5 0.0
25/10:00am 4.3 -0.9 0.1 74 1.8 W 17 24 9 13 1017.5 1012.9 0.0
25/09:30am 3.7 -1.6 -0.3 75 1.7 W 17 26 9 14 1017.1 1012.5 0.0
25/09:00am 3.4 -2.3 0.8 83 1.1 W 20 28 11 15 1016.5 1011.9 36.6
25/08:30am 3.0 -3.0 -1.2 74 1.7 W 20 32 11 17 1015.8 1011.2 36.6
25/08:00am 1.9 -4.4 -3.6 67 2.2 WSW 20 30 11 16 1015.6 1010.9 36.6
25/07:30am 1.2 -5.3 -2.5 76 1.5 WSW 22 32 12 17 1015.2 1010.6 36.6
25/07:00am 0.5 -5.2 0.5 100 0.0 WSW 20 28 11 15 1014.8 1010.1 36.6
25/06:30am 0.0 -4.5 0.0 100 0.0 W 13 19 7 10 1014.3 1009.6 36.6
25/06:00am -0.2 -4.3 -0.2 100 0.0 WNW 11 19 6 10 1014.0 1009.3 36.6
25/05:30am 0.1 -3.6 0.1 100 0.0 WNW 9 17 5 9 1013.5 1008.7 36.6
25/05:00am 0.7 -2.9 0.7 100 0.0 W 9 17 5 9 1013.1 1008.3 36.6
25/04:30am 0.9 -2.7 0.9 100 0.0 NW 9 17 5 9 1012.7 1008.0 36.6
25/04:00am 1.2 -3.5 1.2 100 0.0 WNW 15 20 8 11 1012.5 1007.7 36.6
25/03:30am 1.9 -3.0 1.9 100 0.0 NW 17 30 9 16 1012.4 1007.6 36.6
25/03:00am 2.7 -2.7 2.7 100 0.0 NW 20 32 11 17 1012.4 1007.6 36.6
25/02:30am 3.7 -2.2 3.7 100 0.0 WNW 24 37 13 20 1012.4 1007.6 36.6
25/02:00am 4.5 -0.9 4.5 100 0.0 NW 22 35 12 19 1012.6 1007.8 36.6
25/01:30am 4.9 0.0 4.9 100 0.0 NW 20 33 11 18 1012.9 1008.1 36.6
25/01:00am 5.8 0.3 5.8 100 0.0 NW 24 35 13 19 1013.0 1008.2 36.6
25/12:30am 6.5 1.5 6.5 100 0.0 WNW 22 35 12 19 1013.3 1008.6 36.6
25/12:00am 7.2 2.0 7.2 100 0.0 WNW 24 33 13 18 1013.5 1008.7 36.6
 
Date/Time
EDT
Temp
°C
App
Temp
°C
Dew
Point
Rel
Hum
%
Delta-T
°C
Wind Press
QNH
hPa
Press
MSL
hPa
Rain
since 9 am
mm
Dir
 
Spd
km/h
Gust
km/h
Spd
kts
Gust
kts
24/11:30pm 8.0 2.6 8.0 100 0.0 W 26 35 14 19 1013.3 1008.6 36.4
24/11:00pm 9.5 6.2 9.5 100 0.0 NW 17 32 9 17 1013.2 1008.5 35.6

Other Formats:

Comma delimited format used in spreadsheet applications
http://www.bom.gov.au/fwo/IDV60801/IDV60801.94903.axf

JavaScript Object Notation format (JSON) in row-major order
http://www.bom.gov.au/fwo/IDV60801/IDV60801.94903.json